Weather History for Piney Island, NC

Change the Weather History Date:

Wednesday, November 20, 2013

  Actual Average (KMRH) Record (KMRH)
Temperature  
Mean Temperature 54 °F -  
Max Temperature 60 °F 66 °F 79 °F (1985)
Min Temperature 48 °F 45 °F 23 °F (1951)
Degree Days  
Heating Degree Days 11    
Growing Degree Days 4 (Base 50)    
Moisture  
Dew Point 44 °F    
Average Humidity 71    
Maximum Humidity 80    
Minimum Humidity 62    
Precipitation  
Precipitation 0.00 in - - ()
Sea Level Pressure  
Sea Level Pressure 30.34 in    
Wind  
Wind Speed 16 mph (NNE)    
Max Wind Speed 21 mph    
Max Gust Speed 29 mph    
Averages and records for this station are not official NWS values.
T = Trace of Precipitation, MM = Missing Value Source: NWS Daily Summary

Daily Weather History Graph

Daily Weather History Graph

Search for Another Location

Airport:

Trip Planner

Search our weather history database for the weather conditions in past years. The results will help you decide how hot, cold, wet, or windy it might be!

Date:

Astronomy

Nov. 20, 2013 Rise Set
Actual Time 6:45 AM EST 4:57 PM EST
Civil Twilight 6:18 AM EST 5:24 PM EST
Nautical Twilight 5:47 AM EST 5:55 PM EST
Astronomical Twilight 5:17 AM EST 6:25 PM EST
Moon 7:38 PM EST (11/20) 9:08 AM EST (11/20)
Length of Visible Light 11h 06m
Length of Day
10h 11m
Waning Gibbous, 91% of the Moon is Illuminated
Nov 20
Waning Gibbous
Nov 25
Last Quarter
Dec 2
New
Dec 9
First Quarter
Dec 17
Full

Hourly Weather History & Observations

Time (EST) Temp. Dew Point Humidity Pressure Visibility Wind Dir Wind Speed Gust Speed Precip Events Conditions
12:56 AM 48.9 °F 39.0 °F 69% 30.25 in - North 17.3 mph 24.2 mph N/A   Clear
1:56 AM 48.9 °F 39.0 °F 69% 30.27 in - North 16.1 mph - N/A   Clear
2:56 AM 48.9 °F 39.0 °F 69% 30.26 in - North 16.1 mph 26.5 mph N/A   Clear
3:56 AM 48.9 °F 39.9 °F 71% 30.29 in - North 16.1 mph 23.0 mph N/A   Clear
4:56 AM 48.9 °F 39.9 °F 71% 30.30 in - North 16.1 mph 21.9 mph N/A   Clear
5:56 AM 48.9 °F 41.0 °F 74% 30.29 in - NNE 15.0 mph 25.3 mph N/A   Clear
6:56 AM 48.9 °F 42.1 °F 77% 30.31 in - North 17.3 mph 25.3 mph N/A   Clear
7:56 AM 50.0 °F 42.1 °F 74% 30.33 in - North 16.1 mph 25.3 mph N/A   Clear
8:56 AM 53.1 °F 43.0 °F 69% 30.36 in - NNE 20.7 mph 28.8 mph N/A   Clear
9:56 AM 55.9 °F 43.0 °F 62% 30.37 in - NNE 17.3 mph 26.5 mph N/A   Mostly Cloudy
10:56 AM 57.9 °F 45.0 °F 62% 30.37 in - NNE 18.4 mph 25.3 mph N/A   Mostly Cloudy
11:56 AM 59.0 °F 46.0 °F 62% 30.35 in - NNE 17.3 mph 26.5 mph N/A   Mostly Cloudy
12:56 PM 60.1 °F 48.0 °F 64% 30.35 in - NNE 13.8 mph 20.7 mph N/A   Overcast
1:56 PM 57.9 °F 46.9 °F 67% 30.36 in - NNE 12.7 mph - N/A   Overcast
2:56 PM 59.0 °F 46.9 °F 64% 30.35 in - NNE 13.8 mph - N/A   Mostly Cloudy
3:56 PM 57.0 °F 46.9 °F 69% 30.36 in - NNE 15.0 mph 23.0 mph N/A   Scattered Clouds
4:56 PM 55.9 °F 46.9 °F 72% 30.37 in - NNE 15.0 mph 21.9 mph N/A   Overcast
5:56 PM 54.0 °F 46.0 °F 75% 30.38 in - North 17.3 mph 24.2 mph N/A   Partly Cloudy
6:56 PM 54.0 °F 46.0 °F 75% 30.38 in - North 16.1 mph 24.2 mph N/A   Clear
7:56 PM 54.0 °F 46.9 °F 77% 30.40 in - North 13.8 mph 23.0 mph N/A   Partly Cloudy
8:56 PM 54.0 °F 46.9 °F 77% 30.38 in - NNE 15.0 mph - N/A   Scattered Clouds
9:56 PM 54.0 °F 48.0 °F 80% 30.40 in - NNE 13.8 mph 21.9 mph N/A   Overcast
10:56 PM 55.0 °F 48.9 °F 80% 30.39 in - NNE 12.7 mph - N/A   Overcast
11:56 PM 55.0 °F 48.9 °F 80% 30.40 in - NNE 13.8 mph - N/A   Overcast